Zurück zum Katalog

STARLINK-32892

AktivKommunikationVLEO
NORAD 62893·PAYLOAD·🇺🇸 United States

Gestartet Feb 4, 2025 von Cape Canaveral Space Force Station

Loading…

Nächste Überflüge (nächste 24 Stunden)

TLE

AktuellSource: CelesTrak SupGP

Epoche: Sep 15, 2026, 02:19 UTC

1 62893C 25024Q   26258.09701389  .00042568  00000+0  15417-2 0  2583
2 62893  43.0018 335.8726 0001489 263.5134   9.3890 15.27558586    18

Verfolge STARLINK-32892 in Echtzeit mit AllMySat

Download on the App Store